Year,Month,Day,Hour,Minute,Value (Times are PST for temperature in C)
2022,10,02,00,00,13.50
2022,10,02,00,01,13.50
2022,10,02,00,02,13.50
2022,10,02,00,03,13.50
2022,10,02,00,04,13.50
2022,10,02,00,05,13.50
2022,10,02,00,06,13.50
2022,10,02,00,07,13.50
2022,10,02,00,08,13.50
2022,10,02,00,09,13.40
2022,10,02,00,10,13.40
2022,10,02,00,11,13.40
2022,10,02,00,12,13.40
2022,10,02,00,13,13.30
2022,10,02,00,14,13.30
2022,10,02,00,15,13.30
2022,10,02,00,16,13.30
2022,10,02,00,17,13.30
2022,10,02,00,18,13.30
2022,10,02,00,19,13.30
2022,10,02,00,20,13.30
2022,10,02,00,21,13.30
2022,10,02,00,22,13.40
2022,10,02,00,23,13.40
2022,10,02,00,24,13.50
2022,10,02,00,25,13.50
2022,10,02,00,26,13.50
2022,10,02,00,27,13.50
2022,10,02,00,28,13.50
2022,10,02,00,29,13.50
2022,10,02,00,30,13.50
2022,10,02,00,31,13.50
2022,10,02,00,32,13.50
2022,10,02,00,33,13.50
2022,10,02,00,34,13.50
2022,10,02,00,35,13.50
2022,10,02,00,36,13.40
2022,10,02,00,37,13.40
2022,10,02,00,38,13.30
2022,10,02,00,39,13.30
2022,10,02,00,40,13.30
2022,10,02,00,41,13.20
2022,10,02,00,42,13.20
2022,10,02,00,43,13.30
2022,10,02,00,44,13.30
2022,10,02,00,45,13.30
2022,10,02,00,46,13.30
2022,10,02,00,47,13.30
2022,10,02,00,48,13.30
2022,10,02,00,49,13.30
2022,10,02,00,50,13.40
2022,10,02,00,51,13.40
2022,10,02,00,52,13.40
2022,10,02,00,53,13.40
2022,10,02,00,54,13.40
2022,10,02,00,55,13.50
2022,10,02,00,56,13.50
2022,10,02,00,57,13.50
2022,10,02,00,58,13.60
2022,10,02,00,59,13.60
2022,10,02,01,00,13.60
2022,10,02,01,01,13.60
2022,10,02,01,02,13.60
2022,10,02,01,03,13.60
2022,10,02,01,04,13.60
2022,10,02,01,05,13.60
2022,10,02,01,06,13.70
2022,10,02,01,07,13.70
2022,10,02,01,08,13.70
2022,10,02,01,09,13.70
2022,10,02,01,10,13.70
2022,10,02,01,11,13.70
2022,10,02,01,12,13.70
2022,10,02,01,13,13.60
2022,10,02,01,14,13.60
2022,10,02,01,15,13.60
2022,10,02,01,16,13.60
2022,10,02,01,17,13.50
2022,10,02,01,18,13.50
2022,10,02,01,19,13.50
2022,10,02,01,20,13.50
2022,10,02,01,21,13.50
2022,10,02,01,22,13.50
2022,10,02,01,23,13.50
2022,10,02,01,24,13.50
2022,10,02,01,25,13.60
2022,10,02,01,26,13.60
2022,10,02,01,27,13.60
2022,10,02,01,28,13.60
2022,10,02,01,29,13.60
2022,10,02,01,30,13.60
2022,10,02,01,31,13.60
2022,10,02,01,32,13.60
2022,10,02,01,33,13.70
2022,10,02,01,34,13.70
2022,10,02,01,35,13.70
2022,10,02,01,36,13.70
2022,10,02,01,37,13.70
2022,10,02,01,38,13.80
2022,10,02,01,39,13.80
2022,10,02,01,40,13.80
2022,10,02,01,41,13.80
2022,10,02,01,42,13.80
2022,10,02,01,43,13.80
2022,10,02,01,44,13.80
2022,10,02,01,45,13.80
2022,10,02,01,46,13.80
2022,10,02,01,47,13.80
2022,10,02,01,48,13.80
2022,10,02,01,49,13.80
2022,10,02,01,50,13.80
2022,10,02,01,51,13.80
2022,10,02,01,52,13.80
2022,10,02,01,53,13.70
2022,10,02,01,54,13.70
2022,10,02,01,55,13.70
2022,10,02,01,56,13.70
2022,10,02,01,57,13.70
2022,10,02,01,58,13.70
2022,10,02,01,59,13.70
2022,10,02,02,00,13.70
2022,10,02,02,01,13.70
2022,10,02,02,02,13.70
2022,10,02,02,03,13.60
2022,10,02,02,04,13.60
2022,10,02,02,05,13.60
2022,10,02,02,06,13.60
2022,10,02,02,07,13.50
2022,10,02,02,08,13.50
2022,10,02,02,09,13.50
2022,10,02,02,10,13.40
2022,10,02,02,11,13.40
2022,10,02,02,12,13.40
2022,10,02,02,13,13.30
2022,10,02,02,14,13.30
2022,10,02,02,15,13.30
2022,10,02,02,16,13.30
2022,10,02,02,17,13.30
2022,10,02,02,18,13.30
2022,10,02,02,19,13.30
2022,10,02,02,20,13.30
2022,10,02,02,21,13.30
2022,10,02,02,22,13.30
2022,10,02,02,23,13.30
2022,10,02,02,24,13.30
2022,10,02,02,25,13.30
2022,10,02,02,26,13.30
2022,10,02,02,27,13.30
2022,10,02,02,28,13.40
2022,10,02,02,29,13.40
2022,10,02,02,30,13.40
2022,10,02,02,31,13.40
2022,10,02,02,32,13.30
2022,10,02,02,33,13.30
2022,10,02,02,34,13.30
2022,10,02,02,35,13.40
2022,10,02,02,36,13.40
2022,10,02,02,37,13.30
2022,10,02,02,38,13.30
2022,10,02,02,39,13.20
2022,10,02,02,40,13.20
2022,10,02,02,41,13.10
2022,10,02,02,42,13.10
2022,10,02,02,43,13.10
2022,10,02,02,44,13.00
2022,10,02,02,45,13.00
2022,10,02,02,46,13.00
2022,10,02,02,47,13.00
2022,10,02,02,48,13.00
2022,10,02,02,49,13.00
2022,10,02,02,50,13.00
2022,10,02,02,51,13.10
2022,10,02,02,52,13.10
2022,10,02,02,53,13.10
2022,10,02,02,54,13.20
2022,10,02,02,55,13.30
2022,10,02,02,56,13.30
2022,10,02,02,57,13.30
2022,10,02,02,58,13.40
2022,10,02,02,59,13.40
2022,10,02,03,00,13.50
2022,10,02,03,01,13.50
2022,10,02,03,02,13.50
2022,10,02,03,03,13.50
2022,10,02,03,04,13.60
2022,10,02,03,05,13.60
2022,10,02,03,06,13.60
2022,10,02,03,07,13.60
2022,10,02,03,08,13.60
2022,10,02,03,09,13.60
2022,10,02,03,10,13.60
2022,10,02,03,11,13.60
2022,10,02,03,12,13.60
2022,10,02,03,13,13.60
2022,10,02,03,14,13.60
2022,10,02,03,15,13.60
2022,10,02,03,16,13.60
2022,10,02,03,17,13.60
2022,10,02,03,18,13.60
2022,10,02,03,19,13.50
2022,10,02,03,20,13.50
2022,10,02,03,21,13.50
2022,10,02,03,22,13.40
2022,10,02,03,23,13.40
2022,10,02,03,24,13.40
2022,10,02,03,25,13.40
2022,10,02,03,26,13.40
2022,10,02,03,27,13.30
2022,10,02,03,28,13.30
2022,10,02,03,29,13.30
2022,10,02,03,30,13.20
2022,10,02,03,31,13.20
2022,10,02,03,32,13.20
2022,10,02,03,33,13.10
2022,10,02,03,34,13.10
2022,10,02,03,35,13.10
2022,10,02,03,36,13.00
2022,10,02,03,37,13.00
2022,10,02,03,38,13.00
2022,10,02,03,39,13.00
2022,10,02,03,40,13.00
2022,10,02,03,41,13.00
2022,10,02,03,42,13.10
2022,10,02,03,43,13.10
2022,10,02,03,44,13.20
2022,10,02,03,45,13.20
2022,10,02,03,46,13.30
2022,10,02,03,47,13.30
2022,10,02,03,48,13.30
2022,10,02,03,49,13.30
2022,10,02,03,50,13.30
2022,10,02,03,51,13.30
2022,10,02,03,52,13.30
2022,10,02,03,53,13.30
2022,10,02,03,54,13.20
2022,10,02,03,55,13.20
2022,10,02,03,56,13.10
2022,10,02,03,57,13.10
2022,10,02,03,58,13.10
2022,10,02,03,59,13.10
2022,10,02,04,00,13.20
2022,10,02,04,01,13.20
2022,10,02,04,02,13.20
2022,10,02,04,03,13.30
2022,10,02,04,04,13.30
2022,10,02,04,05,13.30
2022,10,02,04,06,13.30
2022,10,02,04,07,13.30
2022,10,02,04,08,13.20
2022,10,02,04,09,13.20
2022,10,02,04,10,13.30
2022,10,02,04,11,13.30
2022,10,02,04,12,13.30
2022,10,02,04,13,13.30
2022,10,02,04,14,13.30
2022,10,02,04,15,13.40
2022,10,02,04,16,13.40
2022,10,02,04,17,13.40
2022,10,02,04,18,13.40
2022,10,02,04,19,13.40
2022,10,02,04,20,13.40
2022,10,02,04,21,13.40
2022,10,02,04,22,13.40
2022,10,02,04,23,13.30
2022,10,02,04,24,13.30
2022,10,02,04,25,13.30
2022,10,02,04,26,13.30
2022,10,02,04,27,13.30
2022,10,02,04,28,13.20
2022,10,02,04,29,13.20
2022,10,02,04,30,13.20
2022,10,02,04,31,13.20
2022,10,02,04,32,13.10
2022,10,02,04,33,13.10
2022,10,02,04,34,13.10
2022,10,02,04,35,13.00
2022,10,02,04,36,13.00
2022,10,02,04,37,12.90
2022,10,02,04,38,12.90
2022,10,02,04,39,12.90
2022,10,02,04,40,12.90
2022,10,02,04,41,12.90
2022,10,02,04,42,12.90
2022,10,02,04,43,12.90
2022,10,02,04,44,12.90
2022,10,02,04,45,12.90
2022,10,02,04,46,12.90
2022,10,02,04,47,12.90
2022,10,02,04,48,12.90
2022,10,02,04,49,12.90
2022,10,02,04,50,13.00
2022,10,02,04,51,13.00
2022,10,02,04,52,13.00
2022,10,02,04,53,13.10
2022,10,02,04,54,13.10
2022,10,02,04,55,13.20
2022,10,02,04,56,13.20
2022,10,02,04,57,13.30
2022,10,02,04,58,13.30
2022,10,02,04,59,13.30
2022,10,02,05,00,13.30
2022,10,02,05,01,13.20
2022,10,02,05,02,13.20
2022,10,02,05,03,13.10
2022,10,02,05,04,13.00
2022,10,02,05,05,12.90
2022,10,02,05,06,12.90
2022,10,02,05,07,12.80
2022,10,02,05,08,12.80
2022,10,02,05,09,12.80
2022,10,02,05,10,12.80
2022,10,02,05,11,12.80
2022,10,02,05,12,12.80
2022,10,02,05,13,12.80
2022,10,02,05,14,12.70
2022,10,02,05,15,12.70
2022,10,02,05,16,12.60
2022,10,02,05,17,12.50
2022,10,02,05,18,12.50
2022,10,02,05,19,12.40
2022,10,02,05,20,12.40
2022,10,02,05,21,12.40
2022,10,02,05,22,12.40
2022,10,02,05,23,12.40
2022,10,02,05,24,12.40
2022,10,02,05,25,12.40
2022,10,02,05,26,12.40
2022,10,02,05,27,12.40
2022,10,02,05,28,12.40
2022,10,02,05,29,12.40
2022,10,02,05,30,12.40
2022,10,02,05,31,12.30
2022,10,02,05,32,12.30
2022,10,02,05,33,12.30
2022,10,02,05,34,12.30
2022,10,02,05,35,12.20
2022,10,02,05,36,12.10
2022,10,02,05,37,12.10
2022,10,02,05,38,12.10
2022,10,02,05,39,12.10
2022,10,02,05,40,12.10
2022,10,02,05,41,12.10
2022,10,02,05,42,12.10
2022,10,02,05,43,12.10
2022,10,02,05,44,12.10
2022,10,02,05,45,12.10
2022,10,02,05,46,12.10
2022,10,02,05,47,12.10
2022,10,02,05,48,12.00
2022,10,02,05,49,12.00
2022,10,02,05,50,12.00
2022,10,02,05,51,11.90
2022,10,02,05,52,11.90
2022,10,02,05,53,11.90
2022,10,02,05,54,11.90
2022,10,02,05,55,11.80
2022,10,02,05,56,11.80
2022,10,02,05,57,11.80
2022,10,02,05,58,11.70
2022,10,02,05,59,11.70
2022,10,02,06,00,11.70
2022,10,02,06,01,11.70
2022,10,02,06,02,11.60
2022,10,02,06,03,11.60
2022,10,02,06,04,11.60
2022,10,02,06,05,11.60
2022,10,02,06,06,11.50
2022,10,02,06,07,11.50
2022,10,02,06,08,11.50
2022,10,02,06,09,11.50
2022,10,02,06,10,11.50
2022,10,02,06,11,11.50
2022,10,02,06,12,11.50
2022,10,02,06,13,11.50
2022,10,02,06,14,11.50
2022,10,02,06,15,11.50
2022,10,02,06,16,11.50
2022,10,02,06,17,11.50
2022,10,02,06,18,11.60
2022,10,02,06,19,11.60
2022,10,02,06,20,11.60
2022,10,02,06,21,11.70
2022,10,02,06,22,11.70
2022,10,02,06,23,11.70
2022,10,02,06,24,11.70
2022,10,02,06,25,11.70
2022,10,02,06,26,11.70
2022,10,02,06,27,11.80
2022,10,02,06,28,11.80
2022,10,02,06,29,11.80
2022,10,02,06,30,11.80
2022,10,02,06,31,11.80
2022,10,02,06,32,11.90
2022,10,02,06,33,11.90
2022,10,02,06,34,11.90
2022,10,02,06,35,11.90
2022,10,02,06,36,11.90
2022,10,02,06,37,11.90
2022,10,02,06,38,11.90
2022,10,02,06,39,12.00
2022,10,02,06,40,12.00
2022,10,02,06,41,12.00
2022,10,02,06,42,12.00
2022,10,02,06,43,12.00
2022,10,02,06,44,12.10
2022,10,02,06,45,12.10
2022,10,02,06,46,12.10
2022,10,02,06,47,12.10
2022,10,02,06,48,12.10
2022,10,02,06,49,12.10
2022,10,02,06,50,12.10
2022,10,02,06,51,12.10
2022,10,02,06,52,12.10
2022,10,02,06,53,12.10
2022,10,02,06,54,12.00
2022,10,02,06,55,12.00
2022,10,02,06,56,12.00
2022,10,02,06,57,12.10
2022,10,02,06,58,12.10
2022,10,02,06,59,12.10
2022,10,02,07,00,12.10
2022,10,02,07,01,12.10
2022,10,02,07,02,12.10
2022,10,02,07,03,12.10
2022,10,02,07,04,12.10
2022,10,02,07,05,12.10
2022,10,02,07,06,12.10
2022,10,02,07,07,12.10
2022,10,02,07,08,12.10
2022,10,02,07,09,12.10
2022,10,02,07,10,12.10
2022,10,02,07,11,12.00
2022,10,02,07,12,12.00
2022,10,02,07,13,11.90
2022,10,02,07,14,11.90
2022,10,02,07,15,11.90
2022,10,02,07,16,11.90
2022,10,02,07,17,11.90
2022,10,02,07,18,11.90
2022,10,02,07,19,11.90
2022,10,02,07,20,12.00
2022,10,02,07,21,12.00
2022,10,02,07,22,12.10
2022,10,02,07,23,12.10
2022,10,02,07,24,12.20
2022,10,02,07,25,12.10
2022,10,02,07,26,12.10
2022,10,02,07,27,12.10
2022,10,02,07,28,12.20
2022,10,02,07,29,12.20
2022,10,02,07,30,12.20
2022,10,02,07,31,12.20
2022,10,02,07,32,12.20
2022,10,02,07,33,12.20
2022,10,02,07,34,12.20
2022,10,02,07,35,12.20
2022,10,02,07,36,12.20
2022,10,02,07,37,12.20
2022,10,02,07,38,12.20
2022,10,02,07,39,12.20
2022,10,02,07,40,12.20
2022,10,02,07,41,12.20
2022,10,02,07,42,12.20
2022,10,02,07,43,12.20
2022,10,02,07,44,12.20
2022,10,02,07,45,12.30
2022,10,02,07,46,12.30
2022,10,02,07,47,12.30
2022,10,02,07,48,12.40
2022,10,02,07,49,12.40
2022,10,02,07,50,12.40
2022,10,02,07,51,12.30
2022,10,02,07,52,12.30
2022,10,02,07,53,12.20
2022,10,02,07,54,12.20
2022,10,02,07,55,12.20
2022,10,02,07,56,12.30
2022,10,02,07,57,12.30
2022,10,02,07,58,12.30
2022,10,02,07,59,12.30
2022,10,02,08,00,12.20
2022,10,02,08,01,12.20
2022,10,02,08,02,12.10
2022,10,02,08,03,12.10
2022,10,02,08,04,12.10
2022,10,02,08,05,12.10
2022,10,02,08,06,12.10
2022,10,02,08,07,12.10
2022,10,02,08,08,12.10
2022,10,02,08,09,12.10
2022,10,02,08,10,12.10
2022,10,02,08,11,12.10
2022,10,02,08,12,12.20
2022,10,02,08,13,12.20
2022,10,02,08,14,12.20
2022,10,02,08,15,12.30
2022,10,02,08,16,12.30
2022,10,02,08,17,12.40
2022,10,02,08,18,12.40
2022,10,02,08,19,12.50
2022,10,02,08,20,12.50
2022,10,02,08,21,12.60
2022,10,02,08,22,12.60
2022,10,02,08,23,12.60
2022,10,02,08,24,12.60
2022,10,02,08,25,12.60
2022,10,02,08,26,12.60
2022,10,02,08,27,12.60
2022,10,02,08,28,12.70
2022,10,02,08,29,12.70
2022,10,02,08,30,12.70
2022,10,02,08,31,12.70
2022,10,02,08,32,12.70
2022,10,02,08,33,12.80
2022,10,02,08,34,12.80
2022,10,02,08,35,12.80
2022,10,02,08,36,12.80
2022,10,02,08,37,12.80
2022,10,02,08,38,12.80
2022,10,02,08,39,12.90
2022,10,02,08,40,12.90
2022,10,02,08,41,12.90
2022,10,02,08,42,13.00
2022,10,02,08,43,13.00
2022,10,02,08,44,13.10
2022,10,02,08,45,13.10
2022,10,02,08,46,13.20
2022,10,02,08,47,13.20
2022,10,02,08,48,13.30
2022,10,02,08,49,13.30
2022,10,02,08,50,13.40
2022,10,02,08,51,13.40
2022,10,02,08,52,13.50
2022,10,02,08,53,13.60
2022,10,02,08,54,13.70
2022,10,02,08,55,13.70
2022,10,02,08,56,13.80
2022,10,02,08,57,13.90
2022,10,02,08,58,14.00
2022,10,02,08,59,14.10
2022,10,02,09,00,14.20
2022,10,02,09,01,14.30
2022,10,02,09,02,14.30
2022,10,02,09,03,14.40
2022,10,02,09,04,14.50
2022,10,02,09,05,14.60
2022,10,02,09,06,14.70
2022,10,02,09,07,14.80
2022,10,02,09,08,14.90
2022,10,02,09,09,15.00
2022,10,02,09,10,15.10
2022,10,02,09,11,15.30
2022,10,02,09,12,15.40
2022,10,02,09,13,15.50
2022,10,02,09,14,15.60
2022,10,02,09,15,15.70
2022,10,02,09,16,15.80
2022,10,02,09,17,15.90
2022,10,02,09,18,16.00
2022,10,02,09,19,16.10
2022,10,02,09,20,16.20
2022,10,02,09,21,16.30
2022,10,02,09,22,16.40
2022,10,02,09,23,16.50
2022,10,02,09,24,16.60
2022,10,02,09,25,16.70
2022,10,02,09,26,16.80
2022,10,02,09,27,16.90
2022,10,02,09,28,17.00
2022,10,02,09,29,17.10
2022,10,02,09,30,17.20
2022,10,02,09,31,17.30
2022,10,02,09,32,17.40
2022,10,02,09,33,17.50
2022,10,02,09,34,17.60
2022,10,02,09,35,17.70
2022,10,02,09,36,17.80
2022,10,02,09,37,17.80
2022,10,02,09,38,17.90
2022,10,02,09,39,18.00
2022,10,02,09,40,18.00
2022,10,02,09,41,18.00
2022,10,02,09,42,18.10
2022,10,02,09,43,18.10
2022,10,02,09,44,18.20
2022,10,02,09,45,18.20
2022,10,02,09,46,18.30
2022,10,02,09,47,18.40
2022,10,02,09,48,18.40
2022,10,02,09,49,18.40
2022,10,02,09,50,18.40
2022,10,02,09,51,18.40
2022,10,02,09,52,18.50
2022,10,02,09,53,18.50
2022,10,02,09,54,18.60
2022,10,02,09,55,18.60
2022,10,02,09,56,18.60
2022,10,02,09,57,18.60
2022,10,02,09,58,18.60
2022,10,02,09,59,18.60
2022,10,02,10,00,18.70
2022,10,02,10,01,18.70
2022,10,02,10,02,18.70
2022,10,02,10,03,18.60
2022,10,02,10,04,18.60
2022,10,02,10,05,18.60
2022,10,02,10,06,18.60
2022,10,02,10,07,18.70
2022,10,02,10,08,18.70
2022,10,02,10,09,18.70
2022,10,02,10,10,18.70
2022,10,02,10,11,18.80
2022,10,02,10,12,18.80
2022,10,02,10,13,18.80
2022,10,02,10,14,18.80
2022,10,02,10,15,18.80
2022,10,02,10,16,18.80
2022,10,02,10,17,18.80
2022,10,02,10,18,18.80
2022,10,02,10,19,18.80
2022,10,02,10,20,18.90
2022,10,02,10,21,18.90
2022,10,02,10,22,18.90
2022,10,02,10,23,19.00
2022,10,02,10,24,19.00
2022,10,02,10,25,19.10
2022,10,02,10,26,19.10
2022,10,02,10,27,19.20
2022,10,02,10,28,19.30
2022,10,02,10,29,19.30
2022,10,02,10,30,19.30
2022,10,02,10,31,19.30
2022,10,02,10,32,19.30
2022,10,02,10,33,19.30
2022,10,02,10,34,19.40
2022,10,02,10,35,19.40
2022,10,02,10,36,19.40
2022,10,02,10,37,19.50
2022,10,02,10,38,19.50
2022,10,02,10,39,19.60
2022,10,02,10,40,19.60
2022,10,02,10,41,19.60
2022,10,02,10,42,19.60
2022,10,02,10,43,19.70
2022,10,02,10,44,19.70
2022,10,02,10,45,19.70
2022,10,02,10,46,19.80
2022,10,02,10,47,19.80
2022,10,02,10,48,19.90
2022,10,02,10,49,19.80
2022,10,02,10,50,19.80
2022,10,02,10,51,19.80
2022,10,02,10,52,19.80
2022,10,02,10,53,19.90
2022,10,02,10,54,19.90
2022,10,02,10,55,19.90
2022,10,02,10,56,20.00
2022,10,02,10,57,20.00
2022,10,02,10,58,20.10
2022,10,02,10,59,20.10
2022,10,02,11,00,20.10
2022,10,02,11,01,20.20
2022,10,02,11,02,20.20
2022,10,02,11,03,20.20
2022,10,02,11,04,20.20
2022,10,02,11,05,20.20
2022,10,02,11,06,20.20
2022,10,02,11,07,20.30
2022,10,02,11,08,20.30
2022,10,02,11,09,20.30
2022,10,02,11,10,20.30
2022,10,02,11,11,20.30
2022,10,02,11,12,20.30
2022,10,02,11,13,20.40
2022,10,02,11,14,20.30
2022,10,02,11,15,20.30
2022,10,02,11,16,20.30
2022,10,02,11,17,20.40
2022,10,02,11,18,20.40
2022,10,02,11,19,20.50
2022,10,02,11,20,20.50
2022,10,02,11,21,20.50
2022,10,02,11,22,20.50
2022,10,02,11,23,20.60
2022,10,02,11,24,20.60
2022,10,02,11,25,20.50
2022,10,02,11,26,20.50
2022,10,02,11,27,20.50
2022,10,02,11,28,20.60
2022,10,02,11,29,20.60
2022,10,02,11,30,20.70
2022,10,02,11,31,20.70
2022,10,02,11,32,20.70
2022,10,02,11,33,20.60
2022,10,02,11,34,20.60
2022,10,02,11,35,20.70
2022,10,02,11,36,20.70
2022,10,02,11,37,20.80
2022,10,02,11,38,20.90
2022,10,02,11,39,20.90
2022,10,02,11,40,20.90
2022,10,02,11,41,21.00
2022,10,02,11,42,21.00
2022,10,02,11,43,21.00
2022,10,02,11,44,21.00
2022,10,02,11,45,21.00
2022,10,02,11,46,21.00
2022,10,02,11,47,21.10
2022,10,02,11,48,21.10
2022,10,02,11,49,21.10
2022,10,02,11,50,21.10
2022,10,02,11,51,21.10
2022,10,02,11,52,21.10
2022,10,02,11,53,21.10
2022,10,02,11,54,21.20
2022,10,02,11,55,21.20
2022,10,02,11,56,21.30
2022,10,02,11,57,21.40
2022,10,02,11,58,21.50
2022,10,02,11,59,21.50
2022,10,02,12,00,21.60
2022,10,02,12,01,21.60
2022,10,02,12,02,21.60
2022,10,02,12,03,21.60
2022,10,02,12,04,21.60
2022,10,02,12,05,21.60
2022,10,02,12,06,21.50
2022,10,02,12,07,21.50
2022,10,02,12,08,21.50
2022,10,02,12,09,21.50
2022,10,02,12,10,21.50
2022,10,02,12,11,21.50
2022,10,02,12,12,21.60
2022,10,02,12,13,21.60
2022,10,02,12,14,21.60
2022,10,02,12,15,21.70
2022,10,02,12,16,21.70
2022,10,02,12,17,21.70
2022,10,02,12,18,21.70
2022,10,02,12,19,21.80
2022,10,02,12,20,21.80
2022,10,02,12,21,21.80
2022,10,02,12,22,21.80
2022,10,02,12,23,21.80
2022,10,02,12,24,21.90
2022,10,02,12,25,21.90
2022,10,02,12,26,21.90
2022,10,02,12,27,21.90
2022,10,02,12,28,21.90
2022,10,02,12,29,21.90
2022,10,02,12,30,21.90
2022,10,02,12,31,21.90
2022,10,02,12,32,21.90
2022,10,02,12,33,22.00
2022,10,02,12,34,22.00
2022,10,02,12,35,22.10
2022,10,02,12,36,22.10
2022,10,02,12,37,22.10
2022,10,02,12,38,22.10
2022,10,02,12,39,22.10
2022,10,02,12,40,22.10
2022,10,02,12,41,22.20
2022,10,02,12,42,22.10
2022,10,02,12,43,22.20
2022,10,02,12,44,22.20
2022,10,02,12,45,22.20
2022,10,02,12,46,22.20
2022,10,02,12,47,22.20
2022,10,02,12,48,22.20
2022,10,02,12,49,22.20
2022,10,02,12,50,22.30
2022,10,02,12,51,22.30
2022,10,02,12,52,22.30
2022,10,02,12,53,22.40
2022,10,02,12,54,22.40
2022,10,02,12,55,22.40
2022,10,02,12,56,22.40
2022,10,02,12,57,22.50
2022,10,02,12,58,22.60
2022,10,02,12,59,22.60
2022,10,02,13,00,22.60
2022,10,02,13,01,22.50
2022,10,02,13,02,22.50
2022,10,02,13,03,22.50
2022,10,02,13,04,22.50
2022,10,02,13,05,22.60
2022,10,02,13,06,22.60
2022,10,02,13,07,22.60
2022,10,02,13,08,22.70
2022,10,02,13,09,22.70
2022,10,02,13,10,22.70
2022,10,02,13,11,22.70
2022,10,02,13,12,22.80
2022,10,02,13,13,22.80
2022,10,02,13,14,22.80
2022,10,02,13,15,22.90
2022,10,02,13,16,22.90
2022,10,02,13,17,22.90
2022,10,02,13,18,22.90
2022,10,02,13,19,22.90
2022,10,02,13,20,22.90
2022,10,02,13,21,22.90
2022,10,02,13,22,23.00
2022,10,02,13,23,23.00
2022,10,02,13,24,23.00
2022,10,02,13,25,23.00
2022,10,02,13,26,23.00
2022,10,02,13,27,23.00
2022,10,02,13,28,22.90
2022,10,02,13,29,22.90
2022,10,02,13,30,22.80
2022,10,02,13,31,22.80
2022,10,02,13,32,22.80
2022,10,02,13,33,22.80
2022,10,02,13,34,22.80
2022,10,02,13,35,22.90
2022,10,02,13,36,23.00
2022,10,02,13,37,23.10
2022,10,02,13,38,23.20
2022,10,02,13,39,23.20
2022,10,02,13,40,23.20
2022,10,02,13,41,23.20
2022,10,02,13,42,23.20
2022,10,02,13,43,23.30
2022,10,02,13,44,23.30
2022,10,02,13,45,23.40
2022,10,02,13,46,23.40
2022,10,02,13,47,23.30
2022,10,02,13,48,23.30
2022,10,02,13,49,23.30
2022,10,02,13,50,23.40
2022,10,02,13,51,23.40
2022,10,02,13,52,23.50
2022,10,02,13,53,23.60
2022,10,02,13,54,23.70
2022,10,02,13,55,23.60
2022,10,02,13,56,23.50
2022,10,02,13,57,23.50
2022,10,02,13,58,23.40
2022,10,02,13,59,23.40
2022,10,02,14,00,23.40
2022,10,02,14,01,23.40
2022,10,02,14,02,23.50
2022,10,02,14,03,23.50
2022,10,02,14,04,23.60
2022,10,02,14,05,23.60
2022,10,02,14,06,23.70
2022,10,02,14,07,23.70
2022,10,02,14,08,23.70
2022,10,02,14,09,23.80
2022,10,02,14,10,23.80
2022,10,02,14,11,23.80
2022,10,02,14,12,23.80
2022,10,02,14,13,23.90
2022,10,02,14,14,23.90
2022,10,02,14,15,23.90
2022,10,02,14,16,23.90
2022,10,02,14,17,23.90
2022,10,02,14,18,23.80
2022,10,02,14,19,23.80
2022,10,02,14,20,23.80
2022,10,02,14,21,23.80
2022,10,02,14,22,23.80
2022,10,02,14,23,23.80
2022,10,02,14,24,23.80
2022,10,02,14,25,23.80
2022,10,02,14,26,23.80
2022,10,02,14,27,23.80
2022,10,02,14,28,23.90
2022,10,02,14,29,23.90
2022,10,02,14,30,23.90
2022,10,02,14,31,23.90
2022,10,02,14,32,23.80
2022,10,02,14,33,23.70
2022,10,02,14,34,23.70
2022,10,02,14,35,23.70
2022,10,02,14,36,23.80
2022,10,02,14,37,23.80
2022,10,02,14,38,23.90
2022,10,02,14,39,23.90
2022,10,02,14,40,23.90
2022,10,02,14,41,23.90
2022,10,02,14,42,23.90
2022,10,02,14,43,23.90
2022,10,02,14,44,23.90
2022,10,02,14,45,23.90
2022,10,02,14,46,23.90
2022,10,02,14,47,23.90
2022,10,02,14,48,23.90
2022,10,02,14,49,24.00
2022,10,02,14,50,24.00
2022,10,02,14,51,24.00
2022,10,02,14,52,23.90
2022,10,02,14,53,23.90
2022,10,02,14,54,24.00
2022,10,02,14,55,24.10
2022,10,02,14,56,24.10
2022,10,02,14,57,24.10
2022,10,02,14,58,24.10
2022,10,02,14,59,24.20
2022,10,02,15,00,24.30
2022,10,02,15,01,24.30
2022,10,02,15,02,24.30
2022,10,02,15,03,24.30
2022,10,02,15,04,24.30
2022,10,02,15,05,24.30
2022,10,02,15,06,24.30
2022,10,02,15,07,24.30
2022,10,02,15,08,24.30
2022,10,02,15,09,24.40
2022,10,02,15,10,24.40
2022,10,02,15,11,24.40
2022,10,02,15,12,24.30
2022,10,02,15,13,24.30
2022,10,02,15,14,24.30
2022,10,02,15,15,24.30
2022,10,02,15,16,24.30
2022,10,02,15,17,24.30
2022,10,02,15,18,24.30
2022,10,02,15,19,24.30
2022,10,02,15,20,24.30
2022,10,02,15,21,24.20
2022,10,02,15,22,24.30
2022,10,02,15,23,24.30
2022,10,02,15,24,24.30
2022,10,02,15,25,24.30
2022,10,02,15,26,24.40
2022,10,02,15,27,24.40
2022,10,02,15,28,24.40
2022,10,02,15,29,24.40
2022,10,02,15,30,24.50
2022,10,02,15,31,24.60
2022,10,02,15,32,24.60
2022,10,02,15,33,24.60
2022,10,02,15,34,24.60
2022,10,02,15,35,24.60
2022,10,02,15,36,24.60
2022,10,02,15,37,24.70
2022,10,02,15,38,24.70
2022,10,02,15,39,24.70
2022,10,02,15,40,24.60
2022,10,02,15,41,24.60
2022,10,02,15,42,24.40
2022,10,02,15,43,24.20
2022,10,02,15,44,24.00
2022,10,02,15,45,23.80
2022,10,02,15,46,23.60
2022,10,02,15,47,23.40
2022,10,02,15,48,23.30
2022,10,02,15,49,23.30
2022,10,02,15,50,23.20
2022,10,02,15,51,23.20
2022,10,02,15,52,23.00
2022,10,02,15,53,22.80
2022,10,02,15,54,22.70
2022,10,02,15,55,22.70
2022,10,02,15,56,22.70
2022,10,02,15,57,22.70
2022,10,02,15,58,22.70
2022,10,02,15,59,22.70
2022,10,02,16,00,22.70
2022,10,02,16,01,22.70
2022,10,02,16,02,22.50
2022,10,02,16,03,22.40
2022,10,02,16,04,22.30
2022,10,02,16,05,22.20
2022,10,02,16,06,22.20
2022,10,02,16,07,22.10
2022,10,02,16,08,22.10
2022,10,02,16,09,22.10
2022,10,02,16,10,22.10
2022,10,02,16,11,22.10
2022,10,02,16,12,22.10
2022,10,02,16,13,22.20
2022,10,02,16,14,22.30
2022,10,02,16,15,22.30
2022,10,02,16,16,22.40
2022,10,02,16,17,22.30
2022,10,02,16,18,22.10
2022,10,02,16,19,22.00
2022,10,02,16,20,21.90
2022,10,02,16,21,21.90
2022,10,02,16,22,21.80
2022,10,02,16,23,21.60
2022,10,02,16,24,21.50
2022,10,02,16,25,21.50
2022,10,02,16,26,21.40
2022,10,02,16,27,21.40
2022,10,02,16,28,21.40
2022,10,02,16,29,21.50
2022,10,02,16,30,21.50
2022,10,02,16,31,21.50
2022,10,02,16,32,21.50
2022,10,02,16,33,21.60
2022,10,02,16,34,21.60
2022,10,02,16,35,21.60
2022,10,02,16,36,21.70
2022,10,02,16,37,21.70
2022,10,02,16,38,21.70
2022,10,02,16,39,21.70
2022,10,02,16,40,21.70
2022,10,02,16,41,21.80
2022,10,02,16,42,21.80
2022,10,02,16,43,21.80
2022,10,02,16,44,21.80
2022,10,02,16,45,21.80
2022,10,02,16,46,21.80
2022,10,02,16,47,21.80
2022,10,02,16,48,21.90
2022,10,02,16,49,21.80
2022,10,02,16,50,21.70
2022,10,02,16,51,21.40
2022,10,02,16,52,21.20
2022,10,02,16,53,20.90
2022,10,02,16,54,20.80
2022,10,02,16,55,20.70
2022,10,02,16,56,20.50
2022,10,02,16,57,20.20
2022,10,02,16,58,20.00
2022,10,02,16,59,19.90
2022,10,02,17,00,19.80
2022,10,02,17,01,19.70
2022,10,02,17,02,19.60
2022,10,02,17,03,19.60
2022,10,02,17,04,19.60
2022,10,02,17,05,19.60
2022,10,02,17,06,19.60
2022,10,02,17,07,19.60
2022,10,02,17,08,19.60
2022,10,02,17,09,19.60
2022,10,02,17,10,19.50
2022,10,02,17,11,19.50
2022,10,02,17,12,19.40
2022,10,02,17,13,19.40
2022,10,02,17,14,19.40
2022,10,02,17,15,19.50
2022,10,02,17,16,19.50
2022,10,02,17,17,19.50
2022,10,02,17,18,19.60
2022,10,02,17,19,19.60